Time,TemperatureF,DewpointF,PressureIn,WindDirection,WindDirectionDegrees,WindSpeedMPH,WindSpeedGustMPH,Humidity,HourlyPrecipIn,Conditions,Clouds,dailyrainin,SoftwareType,DateUTC
2013-03-08 00:00:00,34.4,24.9,30.29,NE,49,5.8,5.8,68,0.00,CLR,,0.00,WeatherDisplay:10.37,2013-03-08 05:00:00,
2013-03-08 00:02:00,34.4,24.9,30.30,NNE,32,6.9,6.9,68,0.00,CLR,,0.00,WeatherDisplay:10.37,2013-03-08 05:02:00,
2013-03-08 00:07:00,34.4,24.9,30.29,ENE,61,3.5,3.5,68,0.00,CLR,,0.00,WeatherDisplay:10.37,2013-03-08 05:07:00,
2013-03-08 00:12:00,34.4,24.9,30.29,NE,42,3.5,3.5,68,0.00,CLR,,0.00,WeatherDisplay:10.37,2013-03-08 05:12:00,
2013-03-08 00:17:00,34.2,24.7,30.29,NNE,32,0.0,0.0,68,0.00,CLR,,0.00,WeatherDisplay:10.37,2013-03-08 05:17:00,
2013-03-08 00:22:00,34.0,24.9,30.29,NE,36,3.5,3.5,69,0.00,CLR,,0.00,WeatherDisplay:10.37,2013-03-08 05:22:00,
2013-03-08 00:27:00,34.4,24.9,30.29,NE,42,3.5,3.5,68,0.00,CLR,,0.00,WeatherDisplay:10.37,2013-03-08 05:27:00,
2013-03-08 00:32:00,34.4,24.9,30.29,NE,42,3.5,3.5,68,0.00,CLR,,0.00,WeatherDisplay:10.37,2013-03-08 05:32:00,
2013-03-08 00:37:00,33.8,24.7,30.28,NNE,31,4.6,4.6,69,0.00,CLR,,0.00,WeatherDisplay:10.37,2013-03-08 05:37:00,
2013-03-08 00:42:00,34.1,24.6,30.28,ENE,71,9.2,9.2,68,0.00,CLR,,0.00,WeatherDisplay:10.37,2013-03-08 05:42:00,
2013-03-08 00:47:00,34.3,24.8,30.28,ENE,67,2.3,2.3,68,0.00,CLR,,0.00,WeatherDisplay:10.37,2013-03-08 05:47:00,
2013-03-08 00:52:00,34.3,24.8,30.28,NE,46,4.6,4.6,68,0.00,CLR,,0.00,WeatherDisplay:10.37,2013-03-08 05:52:00,
2013-03-08 00:57:00,34.3,24.8,30.28,NE,46,0.0,0.0,68,0.00,CLR,,0.00,WeatherDisplay:10.37,2013-03-08 05:57:00,
2013-03-08 01:02:00,34.1,24.6,30.28,NE,46,0.0,0.0,68,0.00,CLR,,0.00,WeatherDisplay:10.37,2013-03-08 06:02:00,
2013-03-08 01:07:00,34.0,24.5,30.28,NE,46,0.0,0.0,68,0.00,CLR,,0.00,WeatherDisplay:10.37,2013-03-08 06:07:00,
2013-03-08 01:12:00,34.3,24.8,30.28,NE,46,0.0,0.0,68,0.00,CLR,,0.00,WeatherDisplay:10.37,2013-03-08 06:12:00,
2013-03-08 01:17:00,33.6,24.2,30.28,North,11,3.5,3.5,68,0.00,CLR,,0.00,WeatherDisplay:10.37,2013-03-08 06:17:00,
2013-03-08 01:22:00,34.3,24.8,30.28,NE,46,0.0,0.0,68,0.00,CLR,,0.00,WeatherDisplay:10.37,2013-03-08 06:22:00,
2013-03-08 01:27:00,33.4,24.0,30.28,North,11,0.0,0.0,68,0.00,CLR,,0.00,WeatherDisplay:10.37,2013-03-08 06:27:00,
2013-03-08 01:32:00,33.1,24.0,30.28,NNE,30,0.0,0.0,69,0.00,CLR,,0.00,WeatherDisplay:10.37,2013-03-08 06:32:00,
2013-03-08 01:37:00,33.4,24.0,30.28,North,11,0.0,0.0,68,0.00,CLR,,0.00,WeatherDisplay:10.37,2013-03-08 06:37:00,
2013-03-08 01:42:00,33.4,24.0,30.28,North,11,0.0,0.0,68,0.00,CLR,,0.00,WeatherDisplay:10.37,2013-03-08 06:42:00,
2013-03-08 01:47:00,32.2,23.8,30.27,NE,48,0.0,0.0,71,0.00,CLR,,0.00,WeatherDisplay:10.37,2013-03-08 06:47:00,
2013-03-08 01:52:00,32.0,24.0,30.27,NNE,29,0.0,0.0,72,0.00,CLR,,0.00,WeatherDisplay:10.37,2013-03-08 06:52:00,
2013-03-08 01:57:00,32.0,24.0,30.27,NNE,29,0.0,0.0,72,0.00,CLR,,0.00,WeatherDisplay:10.37,2013-03-08 06:57:00,
2013-03-08 02:02:00,32.1,23.8,30.28,North,355,0.0,0.0,71,0.00,CLR,,0.00,WeatherDisplay:10.37,2013-03-08 07:02:00,
2013-03-08 02:07:00,32.3,23.9,30.28,NNE,30,3.5,3.5,71,0.00,CLR,,0.00,WeatherDisplay:10.37,2013-03-08 07:07:00,
2013-03-08 02:12:00,32.5,24.1,30.28,NNE,30,0.0,0.0,71,0.00,CLR,,0.00,WeatherDisplay:10.37,2013-03-08 07:12:00,
2013-03-08 02:17:00,32.5,23.8,30.28,NNE,30,0.0,0.0,70,0.00,CLR,,0.00,WeatherDisplay:10.37,2013-03-08 07:17:00,
2013-03-08 02:22:00,32.6,23.9,30.28,NNW,327,0.0,0.0,70,0.00,CLR,,0.00,WeatherDisplay:10.37,2013-03-08 07:22:00,
2013-03-08 02:27:00,32.6,23.9,30.28,NNW,327,0.0,0.0,70,0.00,CLR,,0.00,WeatherDisplay:10.37,2013-03-08 07:27:00,
2013-03-08 02:32:00,32.5,23.8,30.28,NNE,30,0.0,0.0,70,0.00,CLR,,0.00,WeatherDisplay:10.37,2013-03-08 07:32:00,
2013-03-08 02:37:00,32.5,23.8,30.28,NNW,327,0.0,0.0,70,0.00,CLR,,0.00,WeatherDisplay:10.37,2013-03-08 07:37:00,
2013-03-08 02:42:00,32.4,23.7,30.28,North,360,0.0,0.0,70,0.00,CLR,,0.00,WeatherDisplay:10.37,2013-03-08 07:42:00,
2013-03-08 02:47:00,32.3,23.6,30.28,North,360,0.0,0.0,70,0.00,CLR,,0.00,WeatherDisplay:10.37,2013-03-08 07:47:00,
2013-03-08 02:52:00,32.2,23.5,30.27,North,360,0.0,0.0,70,0.00,CLR,,0.00,WeatherDisplay:10.37,2013-03-08 07:52:00,
2013-03-08 02:57:00,32.4,23.7,30.28,North,360,0.0,0.0,70,0.00,CLR,,0.00,WeatherDisplay:10.37,2013-03-08 07:57:00,
2013-03-08 03:02:00,32.2,23.5,30.28,North,360,0.0,0.0,70,0.00,CLR,,0.00,WeatherDisplay:10.37,2013-03-08 08:02:00,
2013-03-08 03:07:00,32.4,23.7,30.28,North,360,0.0,0.0,70,0.00,CLR,,0.00,WeatherDisplay:10.37,2013-03-08 08:07:00,
2013-03-08 03:12:00,32.4,23.7,30.28,North,360,0.0,0.0,70,0.00,CLR,,0.00,WeatherDisplay:10.37,2013-03-08 08:12:00,
2013-03-08 03:17:00,32.4,23.7,30.28,North,360,0.0,0.0,70,0.00,CLR,,0.00,WeatherDisplay:10.37,2013-03-08 08:17:00,
2013-03-08 03:22:00,31.9,23.2,30.27,North,360,0.0,0.0,70,0.00,CLR,,0.00,WeatherDisplay:10.37,2013-03-08 08:22:00,
2013-03-08 03:27:00,31.8,23.5,30.27,North,360,0.0,0.0,71,0.00,CLR,,0.00,WeatherDisplay:10.37,2013-03-08 08:27:00,
2013-03-08 03:32:00,31.7,23.4,30.27,North,360,0.0,0.0,71,0.00,CLR,,0.00,WeatherDisplay:10.37,2013-03-08 08:32:00,
2013-03-08 03:37:00,31.6,23.3,30.27,North,360,0.0,0.0,71,0.00,CLR,,0.00,WeatherDisplay:10.37,2013-03-08 08:37:00,
2013-03-08 03:42:00,31.5,23.2,30.27,North,360,0.0,0.0,71,0.00,CLR,,0.00,WeatherDisplay:10.37,2013-03-08 08:42:00,
2013-03-08 03:47:00,31.4,23.1,30.26,North,360,0.0,0.0,71,0.00,CLR,,0.00,WeatherDisplay:10.37,2013-03-08 08:47:00,
2013-03-08 03:52:00,31.3,23.0,30.27,North,360,0.0,0.0,71,0.00,CLR,,0.00,WeatherDisplay:10.37,2013-03-08 08:52:00,
2013-03-08 03:57:00,31.2,22.9,30.27,North,360,0.0,0.0,71,0.00,CLR,,0.00,WeatherDisplay:10.37,2013-03-08 08:57:00,
2013-03-08 04:02:00,31.1,23.1,30.27,North,360,0.0,0.0,72,0.00,CLR,,0.00,WeatherDisplay:10.37,2013-03-08 09:02:00,
2013-03-08 04:07:00,31.7,23.4,30.27,North,360,0.0,0.0,71,0.00,CLR,,0.00,WeatherDisplay:10.37,2013-03-08 09:07:00,
2013-03-08 04:12:00,30.9,22.9,30.27,North,360,0.0,0.0,72,0.00,CLR,,0.00,WeatherDisplay:10.37,2013-03-08 09:12:00,
2013-03-08 04:17:00,30.8,22.8,30.27,North,360,0.0,0.0,72,0.00,CLR,,0.00,WeatherDisplay:10.37,2013-03-08 09:17:00,
2013-03-08 04:22:00,30.8,22.8,30.27,North,360,0.0,0.0,72,0.00,CLR,,0.00,WeatherDisplay:10.37,2013-03-08 09:22:00,
2013-03-08 04:27:00,30.7,22.7,30.27,North,360,0.0,0.0,72,0.00,CLR,,0.00,WeatherDisplay:10.37,2013-03-08 09:27:00,
2013-03-08 04:32:00,30.6,22.6,30.27,North,360,0.0,0.0,72,0.00,CLR,,0.00,WeatherDisplay:10.37,2013-03-08 09:32:00,
2013-03-08 04:37:00,30.8,22.8,30.26,North,360,0.0,0.0,72,0.00,CLR,,0.00,WeatherDisplay:10.37,2013-03-08 09:37:00,
2013-03-08 04:42:00,30.5,22.9,30.28,North,360,0.0,0.0,73,0.00,CLR,,0.00,WeatherDisplay:10.37,2013-03-08 09:42:00,
2013-03-08 04:47:00,30.3,23.0,30.28,West,272,0.0,0.0,74,0.00,CLR,,0.00,WeatherDisplay:10.37,2013-03-08 09:47:00,
2013-03-08 04:52:00,30.0,22.7,30.28,West,272,0.0,0.0,74,0.00,CLR,,0.00,WeatherDisplay:10.37,2013-03-08 09:52:00,
2013-03-08 04:57:00,29.8,22.5,30.29,West,272,0.0,0.0,74,0.00,CLR,,0.00,WeatherDisplay:10.37,2013-03-08 09:57:00,
2013-03-08 05:02:00,29.7,22.7,30.29,West,272,0.0,0.0,75,0.00,CLR,,0.00,WeatherDisplay:10.37,2013-03-08 10:02:00,
2013-03-08 05:07:00,29.6,22.6,30.29,West,272,0.0,0.0,75,0.00,CLR,,0.00,WeatherDisplay:10.37,2013-03-08 10:07:00,
2013-03-08 05:12:00,29.6,22.3,30.28,West,272,0.0,0.0,74,0.00,CLR,,0.00,WeatherDisplay:10.37,2013-03-08 10:12:00,
2013-03-08 05:17:00,29.6,22.3,30.29,West,272,0.0,0.0,74,0.00,CLR,,0.00,WeatherDisplay:10.37,2013-03-08 10:17:00,
2013-03-08 05:22:00,29.7,22.4,30.29,West,272,0.0,0.0,74,0.00,CLR,,0.00,WeatherDisplay:10.37,2013-03-08 10:22:00,
2013-03-08 05:27:00,29.7,22.4,30.29,West,272,0.0,0.0,74,0.00,CLR,,0.00,WeatherDisplay:10.37,2013-03-08 10:27:00,
2013-03-08 05:32:00,29.6,22.3,30.29,West,272,0.0,0.0,74,0.00,CLR,,0.00,WeatherDisplay:10.37,2013-03-08 10:32:00,
2013-03-08 05:37:00,29.6,22.3,30.29,West,272,0.0,0.0,74,0.00,CLR,,0.00,WeatherDisplay:10.37,2013-03-08 10:37:00,
2013-03-08 05:42:00,29.6,22.3,30.29,West,272,0.0,0.0,74,0.00,CLR,,0.00,WeatherDisplay:10.37,2013-03-08 10:42:00,
2013-03-08 05:47:00,29.6,22.3,30.29,West,272,0.0,0.0,74,0.00,CLR,,0.00,WeatherDisplay:10.37,2013-03-08 10:47:00,
2013-03-08 05:52:00,29.6,22.3,30.29,West,272,0.0,0.0,74,0.00,CLR,,0.00,WeatherDisplay:10.37,2013-03-08 10:52:00,
2013-03-08 05:57:00,29.6,22.3,30.29,West,272,0.0,0.0,74,0.00,CLR,,0.00,WeatherDisplay:10.37,2013-03-08 10:57:00,
2013-03-08 06:02:00,29.2,21.9,30.30,West,272,0.0,0.0,74,0.00,CLR,,0.00,WeatherDisplay:10.37,2013-03-08 11:02:00,
2013-03-08 06:07:00,29.2,21.9,30.30,West,272,0.0,0.0,74,0.00,CLR,,0.00,WeatherDisplay:10.37,2013-03-08 11:07:00,
2013-03-08 06:12:00,29.0,22.1,30.30,West,272,0.0,0.0,75,0.00,CLR,,0.00,WeatherDisplay:10.37,2013-03-08 11:12:00,
2013-03-08 06:17:00,29.0,22.1,30.30,West,272,0.0,0.0,75,0.00,CLR,,0.00,WeatherDisplay:10.37,2013-03-08 11:17:00,
2013-03-08 06:22:00,29.2,21.9,30.30,West,272,0.0,0.0,74,0.00,CLR,,0.00,WeatherDisplay:10.37,2013-03-08 11:22:00,
2013-03-08 06:27:00,28.9,22.0,30.30,West,272,0.0,0.0,75,0.00,CLR,,0.00,WeatherDisplay:10.37,2013-03-08 11:27:00,
2013-03-08 06:32:00,29.2,21.9,30.30,West,272,0.0,0.0,74,0.00,CLR,,0.00,WeatherDisplay:10.37,2013-03-08 11:32:00,
2013-03-08 06:37:00,29.2,21.9,30.30,West,272,0.0,0.0,74,0.00,CLR,,0.00,WeatherDisplay:10.37,2013-03-08 11:37:00,
2013-03-08 06:42:00,28.7,22.1,30.31,West,272,0.0,0.0,76,0.00,CLR,,0.00,WeatherDisplay:10.37,2013-03-08 11:42:00,
2013-03-08 06:47:00,28.7,22.1,30.31,West,272,0.0,0.0,76,0.00,CLR,,0.00,WeatherDisplay:10.37,2013-03-08 11:47:00,
2013-03-08 06:52:00,28.7,22.1,30.31,West,272,0.0,0.0,76,0.00,CLR,,0.00,WeatherDisplay:10.37,2013-03-08 11:52:00,
2013-03-08 06:57:00,29.2,21.9,30.30,West,272,0.0,0.0,74,0.00,CLR,,0.00,WeatherDisplay:10.37,2013-03-08 11:57:00,
2013-03-08 07:02:00,28.8,22.2,30.31,West,272,0.0,0.0,76,0.00,CLR,,0.00,WeatherDisplay:10.37,2013-03-08 12:02:00,
2013-03-08 07:07:00,28.8,22.2,30.31,West,272,0.0,0.0,76,0.00,CLR,,0.00,WeatherDisplay:10.37,2013-03-08 12:07:00,
2013-03-08 07:12:00,28.8,22.2,30.31,West,272,0.0,0.0,76,0.00,CLR,,0.00,WeatherDisplay:10.37,2013-03-08 12:12:00,
2013-03-08 07:17:00,28.8,22.2,30.31,West,272,0.0,0.0,76,0.00,CLR,,0.00,WeatherDisplay:10.37,2013-03-08 12:17:00,
2013-03-08 07:22:00,28.8,22.2,30.31,West,272,0.0,0.0,76,0.00,CLR,,0.00,WeatherDisplay:10.37,2013-03-08 12:22:00,
2013-03-08 07:27:00,28.8,22.2,30.31,West,272,0.0,0.0,76,0.00,CLR,,0.00,WeatherDisplay:10.37,2013-03-08 12:27:00,
2013-03-08 07:32:00,28.9,22.3,30.32,West,272,0.0,0.0,76,0.00,CLR,,0.00,WeatherDisplay:10.37,2013-03-08 12:32:00,
2013-03-08 07:37:00,28.8,22.2,30.31,West,272,0.0,0.0,76,0.00,CLR,,0.00,WeatherDisplay:10.37,2013-03-08 12:37:00,
2013-03-08 07:42:00,28.8,22.2,30.31,West,272,0.0,0.0,76,0.00,CLR,,0.00,WeatherDisplay:10.37,2013-03-08 12:42:00,
2013-03-08 07:47:00,28.8,22.2,30.31,West,272,0.0,0.0,76,0.00,CLR,,0.00,WeatherDisplay:10.37,2013-03-08 12:47:00,
2013-03-08 07:52:00,30.1,23.8,30.33,West,272,0.0,0.0,77,0.00,CLR,,0.00,WeatherDisplay:10.37,2013-03-08 12:52:00,
2013-03-08 07:57:00,30.7,24.3,30.33,West,272,0.0,0.0,77,0.00,CLR,,0.00,WeatherDisplay:10.37,2013-03-08 12:57:00,
2013-03-08 08:02:00,30.1,23.8,30.33,West,272,0.0,0.0,77,0.00,CLR,,0.00,WeatherDisplay:10.37,2013-03-08 13:02:00,
2013-03-08 08:07:00,31.7,24.7,30.34,WNW,288,0.0,0.0,75,0.00,CLR,,0.00,WeatherDisplay:10.37,2013-03-08 13:07:00,
2013-03-08 08:12:00,32.2,24.8,30.34,WNW,288,0.0,0.0,74,0.00,CLR,,0.00,WeatherDisplay:10.37,2013-03-08 13:12:00,
2013-03-08 08:17:00,32.3,24.9,30.34,WNW,288,0.0,0.0,74,0.00,CLR,,0.00,WeatherDisplay:10.37,2013-03-08 13:17:00,
2013-03-08 08:22:00,32.3,24.9,30.34,WNW,288,0.0,0.0,74,0.00,CLR,,0.00,WeatherDisplay:10.37,2013-03-08 13:22:00,
2013-03-08 08:27:00,32.3,24.9,30.34,WNW,288,0.0,0.0,74,0.00,CLR,,0.00,WeatherDisplay:10.37,2013-03-08 13:27:00,
2013-03-08 08:32:00,34.7,25.9,30.35,WNW,302,3.5,3.5,70,0.00,CLR,,0.00,WeatherDisplay:10.37,2013-03-08 13:32:00,
2013-03-08 08:37:00,34.4,25.6,30.35,NNW,345,2.3,2.3,70,0.00,CLR,,0.00,WeatherDisplay:10.37,2013-03-08 13:37:00,
2013-03-08 08:42:00,35.9,26.7,30.35,North,9,3.5,3.5,69,0.00,CLR,,0.00,WeatherDisplay:10.37,2013-03-08 13:42:00,
2013-03-08 08:47:00,36.4,26.1,30.35,NNE,17,4.6,4.6,66,0.00,CLR,,0.00,WeatherDisplay:10.37,2013-03-08 13:47:00,
2013-03-08 08:52:00,35.3,25.8,30.35,North,5,3.5,3.5,68,0.00,CLR,,0.00,WeatherDisplay:10.37,2013-03-08 13:52:00,
2013-03-08 08:57:00,37.2,27.2,30.35,NNW,343,0.0,0.0,67,0.00,CLR,,0.00,WeatherDisplay:10.37,2013-03-08 13:57:00,
2013-03-08 09:02:00,35.3,25.8,30.35,North,5,3.5,3.5,68,0.00,CLR,,0.00,WeatherDisplay:10.37,2013-03-08 14:02:00,
2013-03-08 09:07:00,35.3,25.8,30.35,North,5,3.5,3.5,68,0.00,CLR,,0.00,WeatherDisplay:10.37,2013-03-08 14:07:00,
2013-03-08 09:12:00,35.3,25.8,30.35,North,5,3.5,3.5,68,0.00,CLR,,0.00,WeatherDisplay:10.37,2013-03-08 14:12:00,
2013-03-08 09:17:00,39.4,25.8,30.35,NE,55,11.5,11.5,58,0.00,CLR,,0.00,WeatherDisplay:10.37,2013-03-08 14:17:00,
2013-03-08 09:22:00,39.6,26.4,30.35,NNE,30,3.5,4.7,59,0.00,CLR,,0.00,WeatherDisplay:10.37,2013-03-08 14:22:00,
2013-03-08 09:27:00,39.9,26.3,30.34,NNE,14,5.8,5.8,58,0.00,CLR,,0.00,WeatherDisplay:10.37,2013-03-08 14:27:00,
2013-03-08 09:32:00,39.6,26.4,30.35,NNE,30,3.5,4.7,59,0.00,CLR,,0.00,WeatherDisplay:10.37,2013-03-08 14:32:00,
2013-03-08 09:37:00,40.0,26.8,30.35,NE,36,9.2,9.2,59,0.00,CLR,,0.00,WeatherDisplay:10.37,2013-03-08 14:37:00,
2013-03-08 09:42:00,40.3,26.3,30.35,NNW,337,5.8,5.8,57,0.00,CLR,,0.00,WeatherDisplay:10.37,2013-03-08 14:42:00,
2013-03-08 09:47:00,39.6,26.4,30.35,NNE,30,3.5,4.7,59,0.00,CLR,,0.00,WeatherDisplay:10.37,2013-03-08 14:47:00,
2013-03-08 09:52:00,41.1,27.0,30.35,NE,51,8.1,8.1,57,0.00,CLR,,0.00,WeatherDisplay:10.37,2013-03-08 14:52:00,
2013-03-08 09:57:00,41.4,26.9,30.35,NW,319,9.2,9.2,56,0.00,CLR,,0.00,WeatherDisplay:10.37,2013-03-08 14:57:00,
2013-03-08 10:02:00,41.7,26.3,30.35,NNW,346,15.0,15.0,54,0.00,CLR,,0.00,WeatherDisplay:10.37,2013-03-08 15:02:00,
2013-03-08 10:07:00,42.0,26.1,30.35,NE,50,11.5,11.5,53,0.00,CLR,,0.00,WeatherDisplay:10.37,2013-03-08 15:07:00,
2013-03-08 10:12:00,42.0,26.1,30.35,NE,50,11.5,11.5,53,0.00,CLR,,0.00,WeatherDisplay:10.37,2013-03-08 15:12:00,
2013-03-08 10:17:00,42.2,26.3,30.35,North,360,8.1,8.1,53,0.00,CLR,,0.00,WeatherDisplay:10.37,2013-03-08 15:17:00,
2013-03-08 10:22:00,42.8,25.4,30.35,North,355,11.5,11.6,50,0.00,CLR,,0.00,WeatherDisplay:10.37,2013-03-08 15:22:00,
2013-03-08 10:27:00,42.2,26.3,30.35,North,360,8.1,8.1,53,0.00,CLR,,0.00,WeatherDisplay:10.37,2013-03-08 15:27:00,
2013-03-08 10:32:00,43.0,27.5,30.34,NW,325,11.5,11.5,54,0.00,CLR,,0.00,WeatherDisplay:10.37,2013-03-08 15:32:00,
2013-03-08 10:37:00,43.4,26.9,30.34,North,355,8.1,8.1,52,0.00,CLR,,0.00,WeatherDisplay:10.37,2013-03-08 15:37:00,
2013-03-08 10:42:00,43.5,26.6,30.34,NW,313,10.4,10.4,51,0.00,CLR,,0.00,WeatherDisplay:10.37,2013-03-08 15:42:00,
2013-03-08 10:47:00,43.5,26.6,30.34,NW,313,10.4,10.4,51,0.00,CLR,,0.00,WeatherDisplay:10.37,2013-03-08 15:47:00,
2013-03-08 10:52:00,43.5,26.6,30.34,NW,313,10.4,10.4,51,0.00,CLR,,0.00,WeatherDisplay:10.37,2013-03-08 15:52:00,
2013-03-08 10:57:00,44.1,26.6,30.34,North,9,5.8,5.8,50,0.00,CLR,,0.00,WeatherDisplay:10.37,2013-03-08 15:57:00,
2013-03-08 11:02:00,44.6,26.6,30.34,ENE,64,11.5,11.5,49,0.00,CLR,,0.00,WeatherDisplay:10.37,2013-03-08 16:02:00,
2013-03-08 11:07:00,44.8,27.3,30.34,NE,34,10.0,10.0,50,0.00,CLR,,0.00,WeatherDisplay:10.37,2013-03-08 16:07:00,
2013-03-08 11:12:00,45.0,26.5,30.34,North,5,6.9,6.9,48,0.00,CLR,,0.00,WeatherDisplay:10.37,2013-03-08 16:12:00,
2013-03-08 11:17:00,45.1,27.1,30.34,North,349,11.5,11.5,49,0.00,CLR,,0.00,WeatherDisplay:10.37,2013-03-08 16:17:00,
2013-03-08 11:22:00,44.1,26.6,30.34,North,9,5.8,5.8,50,0.00,CLR,,0.00,WeatherDisplay:10.37,2013-03-08 16:22:00,
2013-03-08 11:27:00,46.0,26.9,30.34,NNE,22,11.5,11.5,47,0.00,CLR,,0.00,WeatherDisplay:10.37,2013-03-08 16:27:00,
2013-03-08 11:32:00,44.1,26.6,30.34,North,9,5.8,5.8,50,0.00,CLR,,0.00,WeatherDisplay:10.37,2013-03-08 16:32:00,
2013-03-08 11:37:00,46.9,27.2,30.34,North,360,10.4,10.4,46,0.00,CLR,,0.00,WeatherDisplay:10.37,2013-03-08 16:37:00,
2013-03-08 11:42:00,47.2,26.4,30.33,North,360,12.7,12.7,44,0.00,CLR,,0.00,WeatherDisplay:10.37,2013-03-08 16:42:00,
2013-03-08 11:47:00,46.9,27.2,30.34,North,355,3.5,5.5,46,0.00,CLR,,0.00,WeatherDisplay:10.37,2013-03-08 16:47:00,
2013-03-08 11:52:00,47.4,27.1,30.33,WNW,286,10.0,10.0,45,0.00,CLR,,0.00,WeatherDisplay:10.37,2013-03-08 16:52:00,
2013-03-08 11:57:00,47.3,27.5,30.33,NW,304,6.9,8.8,46,0.00,CLR,,0.00,WeatherDisplay:10.37,2013-03-08 16:57:00,
2013-03-08 12:02:00,47.3,27.5,30.33,NW,304,6.9,8.8,46,0.00,CLR,,0.00,WeatherDisplay:10.37,2013-03-08 17:02:00,
2013-03-08 12:07:00,47.3,27.5,30.33,NW,304,6.9,8.8,46,0.00,CLR,,0.00,WeatherDisplay:10.37,2013-03-08 17:07:00,
2013-03-08 12:12:00,47.3,27.5,30.33,NW,304,6.9,8.8,46,0.00,CLR,,0.00,WeatherDisplay:10.37,2013-03-08 17:12:00,
2013-03-08 12:17:00,47.8,27.5,30.32,WNW,298,11.5,11.5,45,0.00,CLR,,0.00,WeatherDisplay:10.37,2013-03-08 17:17:00,
2013-03-08 12:22:00,48.4,26.9,30.31,North,360,11.5,11.5,43,0.00,CLR,,0.00,WeatherDisplay:10.37,2013-03-08 17:22:00,
2013-03-08 12:27:00,47.8,27.5,30.32,WNW,298,11.5,11.5,45,0.00,CLR,,0.00,WeatherDisplay:10.37,2013-03-08 17:27:00,
2013-03-08 12:32:00,49.1,27.5,30.31,North,350,16.1,16.1,43,0.00,CLR,,0.00,WeatherDisplay:10.37,2013-03-08 17:32:00,
2013-03-08 12:37:00,49.3,26.6,30.31,NNE,24,10.4,10.4,41,0.00,CLR,,0.00,WeatherDisplay:10.37,2013-03-08 17:37:00,
2013-03-08 12:42:00,49.1,27.5,30.31,North,350,3.5,8.6,43,0.00,CLR,,0.00,WeatherDisplay:10.37,2013-03-08 17:42:00,
2013-03-08 12:47:00,49.9,26.5,30.30,NNE,21,12.7,12.7,40,0.00,CLR,,0.00,WeatherDisplay:10.37,2013-03-08 17:47:00,
2013-03-08 12:52:00,49.1,27.5,30.31,North,350,3.5,8.6,43,0.00,CLR,,0.00,WeatherDisplay:10.37,2013-03-08 17:52:00,
2013-03-08 12:57:00,50.8,26.7,30.29,NE,42,15.0,15.0,39,0.00,CLR,,0.00,WeatherDisplay:10.37,2013-03-08 17:57:00,
2013-03-08 13:02:00,51.0,25.0,30.29,North,5,18.4,18.4,36,0.00,CLR,,0.00,WeatherDisplay:10.37,2013-03-08 18:02:00,
2013-03-08 13:07:00,50.8,26.1,30.28,NNW,329,14.0,14.0,38,0.00,CLR,,0.00,WeatherDisplay:10.37,2013-03-08 18:07:00,
2013-03-08 13:12:00,51.1,25.0,30.28,North,360,18.4,18.4,36,0.00,CLR,,0.00,WeatherDisplay:10.37,2013-03-08 18:12:00,
2013-03-08 13:17:00,49.1,27.5,30.31,North,350,3.5,8.6,43,0.00,CLR,,0.00,WeatherDisplay:10.37,2013-03-08 18:17:00,
2013-03-08 13:22:00,49.1,27.5,30.31,North,350,3.5,8.6,43,0.00,CLR,,0.00,WeatherDisplay:10.37,2013-03-08 18:22:00,
2013-03-08 13:27:00,51.8,25.7,30.26,NE,56,17.3,17.3,36,0.00,CLR,,0.00,WeatherDisplay:10.37,2013-03-08 18:27:00,
2013-03-08 13:32:00,52.0,26.5,30.26,North,11,11.5,11.5,37,0.00,CLR,,0.00,WeatherDisplay:10.37,2013-03-08 18:32:00,
2013-03-08 13:37:00,52.0,26.5,30.26,North,11,10.4,10.6,37,0.00,CLR,,0.00,WeatherDisplay:10.37,2013-03-08 18:37:00,
2013-03-08 13:42:00,52.3,26.1,30.25,NE,45,10.4,10.4,36,0.00,CLR,,0.00,WeatherDisplay:10.37,2013-03-08 18:42:00,
2013-03-08 13:47:00,52.6,26.4,30.25,NNW,335,11.5,11.5,36,0.00,CLR,,0.00,WeatherDisplay:10.37,2013-03-08 18:47:00,
2013-03-08 13:52:00,52.0,26.5,30.26,North,11,10.4,10.6,37,0.00,CLR,,0.00,WeatherDisplay:10.37,2013-03-08 18:52:00,
2013-03-08 13:57:00,52.0,26.5,30.26,North,11,10.4,10.6,37,0.00,CLR,,0.00,WeatherDisplay:10.37,2013-03-08 18:57:00,
2013-03-08 14:02:00,52.0,26.5,30.26,North,11,10.4,10.6,37,0.00,CLR,,0.00,WeatherDisplay:10.37,2013-03-08 19:02:00,
2013-03-08 14:07:00,52.0,26.5,30.26,North,11,10.4,10.6,37,0.00,CLR,,0.00,WeatherDisplay:10.37,2013-03-08 19:07:00,
2013-03-08 14:12:00,52.0,26.5,30.26,North,11,10.4,10.6,37,0.00,CLR,,0.00,WeatherDisplay:10.37,2013-03-08 19:12:00,
2013-03-08 14:17:00,54.0,27.6,30.25,North,355,16.1,16.1,36,0.00,CLR,,0.00,WeatherDisplay:10.37,2013-03-08 19:17:00,
2013-03-08 14:22:00,54.1,27.0,30.25,NW,314,11.5,11.5,35,0.00,CLR,,0.00,WeatherDisplay:10.37,2013-03-08 19:22:00,
2013-03-08 14:27:00,54.1,27.0,30.25,WNW,302,11.5,11.5,35,0.00,CLR,,0.00,WeatherDisplay:10.37,2013-03-08 19:27:00,
2013-03-08 14:32:00,54.2,27.1,30.25,NNE,16,11.0,11.0,35,0.00,CLR,,0.00,WeatherDisplay:10.37,2013-03-08 19:32:00,
2013-03-08 14:37:00,54.5,26.7,30.25,NNW,336,11.5,11.5,34,0.00,CLR,,0.00,WeatherDisplay:10.37,2013-03-08 19:37:00,
2013-03-08 14:42:00,54.1,27.0,30.25,WNW,302,11.5,11.5,35,0.00,CLR,,0.00,WeatherDisplay:10.37,2013-03-08 19:42:00,
2013-03-08 14:47:00,55.0,27.1,30.24,NW,306,5.8,5.8,34,0.00,CLR,,0.00,WeatherDisplay:10.37,2013-03-08 19:47:00,
2013-03-08 14:52:00,55.2,26.6,30.24,North,360,8.1,8.1,33,0.00,CLR,,0.00,WeatherDisplay:10.37,2013-03-08 19:52:00,
2013-03-08 14:57:00,55.5,27.6,30.24,West,263,12.7,12.7,34,0.00,CLR,,0.00,WeatherDisplay:10.37,2013-03-08 19:57:00,
2013-03-08 15:02:00,55.5,27.6,30.24,NW,314,11.5,11.5,34,0.00,CLR,,0.00,WeatherDisplay:10.37,2013-03-08 20:02:00,
2013-03-08 15:07:00,54.1,27.0,30.25,WNW,302,11.5,11.5,35,0.00,CLR,,0.00,WeatherDisplay:10.37,2013-03-08 20:07:00,
2013-03-08 15:12:00,55.1,27.2,30.24,West,273,10.4,10.4,34,0.00,CLR,,0.00,WeatherDisplay:10.37,2013-03-08 20:12:00,
2013-03-08 15:17:00,54.1,27.0,30.25,WNW,302,11.5,11.5,35,0.00,CLR,,0.00,WeatherDisplay:10.37,2013-03-08 20:17:00,
2013-03-08 15:22:00,54.1,27.0,30.25,WNW,302,11.5,11.5,35,0.00,CLR,,0.00,WeatherDisplay:10.37,2013-03-08 20:22:00,
2013-03-08 15:27:00,54.1,27.0,30.25,WNW,302,11.5,11.5,35,0.00,CLR,,0.00,WeatherDisplay:10.37,2013-03-08 20:27:00,
2013-03-08 15:32:00,54.1,27.0,30.25,WNW,302,11.5,11.5,35,0.00,CLR,,0.00,WeatherDisplay:10.37,2013-03-08 20:32:00,
2013-03-08 15:37:00,55.9,27.2,30.25,NW,319,9.2,9.2,33,0.00,CLR,,0.00,WeatherDisplay:10.37,2013-03-08 20:37:00,
2013-03-08 15:42:00,56.0,26.5,30.25,North,351,13.8,13.8,32,0.00,CLR,,0.00,WeatherDisplay:10.37,2013-03-08 20:42:00,
2013-03-08 15:47:00,56.2,27.4,30.24,WNW,297,4.6,6.1,33,0.00,CLR,,0.00,WeatherDisplay:10.37,2013-03-08 20:47:00,
2013-03-08 15:52:00,54.1,27.0,30.25,WNW,302,11.5,11.5,35,0.00,CLR,,0.00,WeatherDisplay:10.37,2013-03-08 20:52:00,
2013-03-08 15:57:00,56.5,27.0,30.24,NNE,13,10.0,10.0,32,0.00,CLR,,0.00,WeatherDisplay:10.37,2013-03-08 20:57:00,
2013-03-08 16:02:00,56.4,26.9,30.24,NW,320,11.5,11.5,32,0.00,CLR,,0.00,WeatherDisplay:10.37,2013-03-08 21:02:00,
2013-03-08 16:07:00,56.4,26.9,30.24,NW,320,6.9,8.7,32,0.00,CLR,,0.00,WeatherDisplay:10.37,2013-03-08 21:07:00,
2013-03-08 16:12:00,56.4,26.9,30.24,NW,320,6.9,8.7,32,0.00,CLR,,0.00,WeatherDisplay:10.37,2013-03-08 21:12:00,
2013-03-08 16:17:00,56.3,26.0,30.25,North,355,6.9,7.8,31,0.00,CLR,,0.00,WeatherDisplay:10.37,2013-03-08 21:17:00,
2013-03-08 16:22:00,56.4,26.9,30.24,NW,320,6.9,8.7,32,0.00,CLR,,0.00,WeatherDisplay:10.37,2013-03-08 21:22:00,
2013-03-08 16:27:00,56.4,26.9,30.24,NW,320,6.9,8.7,32,0.00,CLR,,0.00,WeatherDisplay:10.37,2013-03-08 21:27:00,
2013-03-08 16:32:00,56.4,26.9,30.24,NW,320,6.9,8.7,32,0.00,CLR,,0.00,WeatherDisplay:10.37,2013-03-08 21:32:00,
2013-03-08 16:37:00,56.4,26.9,30.24,NW,320,6.9,8.7,32,0.00,CLR,,0.00,WeatherDisplay:10.37,2013-03-08 21:37:00,
2013-03-08 16:42:00,56.4,26.9,30.24,NW,320,6.9,8.7,32,0.00,CLR,,0.00,WeatherDisplay:10.37,2013-03-08 21:42:00,
2013-03-08 16:47:00,56.4,26.9,30.24,NW,320,6.9,8.7,32,0.00,CLR,,0.00,WeatherDisplay:10.37,2013-03-08 21:47:00,
2013-03-08 16:52:00,56.2,26.7,30.24,NNW,331,11.5,11.5,32,0.00,CLR,,0.00,WeatherDisplay:10.37,2013-03-08 21:52:00,
2013-03-08 16:57:00,56.1,26.6,30.23,NW,325,7.0,7.1,32,0.00,CLR,,0.00,WeatherDisplay:10.37,2013-03-08 21:57:00,
2013-03-08 17:02:00,56.0,27.3,30.24,WNW,301,5.8,5.8,33,0.00,CLR,,0.00,WeatherDisplay:10.37,2013-03-08 22:02:00,
2013-03-08 17:07:00,56.0,27.3,30.24,NW,323,10.4,10.4,33,0.00,CLR,,0.00,WeatherDisplay:10.37,2013-03-08 22:07:00,
2013-03-08 17:12:00,56.0,27.3,30.24,NW,323,10.4,10.4,33,0.00,CLR,,0.00,WeatherDisplay:10.37,2013-03-08 22:12:00,
2013-03-08 17:17:00,56.0,27.3,30.24,NW,323,10.4,10.4,33,0.00,CLR,,0.00,WeatherDisplay:10.37,2013-03-08 22:17:00,
2013-03-08 17:22:00,55.8,27.1,30.24,North,5,10.0,10.0,33,0.00,CLR,,0.00,WeatherDisplay:10.37,2013-03-08 22:22:00,
2013-03-08 17:27:00,55.5,27.6,30.24,NNW,342,6.9,6.9,34,0.00,CLR,,0.00,WeatherDisplay:10.37,2013-03-08 22:27:00,
2013-03-08 17:32:00,55.4,27.5,30.24,NW,315,5.8,5.8,34,0.00,CLR,,0.00,WeatherDisplay:10.37,2013-03-08 22:32:00,
2013-03-08 17:37:00,55.3,27.4,30.24,NNW,346,4.6,4.6,34,0.00,CLR,,0.00,WeatherDisplay:10.37,2013-03-08 22:37:00,
2013-03-08 17:42:00,55.3,28.1,30.24,WNW,300,4.6,4.6,35,0.00,CLR,,0.00,WeatherDisplay:10.37,2013-03-08 22:42:00,
2013-03-08 17:47:00,55.3,28.1,30.24,WNW,300,4.6,4.6,35,0.00,CLR,,0.00,WeatherDisplay:10.37,2013-03-08 22:47:00,
2013-03-08 17:52:00,55.3,28.1,30.24,WNW,300,4.6,4.6,35,0.00,CLR,,0.00,WeatherDisplay:10.37,2013-03-08 22:52:00,
2013-03-08 17:57:00,54.7,27.6,30.24,North,355,5.8,7.0,35,0.00,CLR,,0.00,WeatherDisplay:10.37,2013-03-08 22:57:00,
2013-03-08 18:03:00,54.1,27.0,30.24,North,5,11.5,11.5,35,0.00,CLR,,0.00,WeatherDisplay:10.37,2013-03-08 23:03:00,
2013-03-08 18:08:00,53.8,27.4,30.24,NE,45,9.0,9.0,36,0.00,CLR,,0.00,WeatherDisplay:10.37,2013-03-08 23:08:00,
2013-03-08 18:13:00,53.5,27.2,30.24,North,351,8.1,8.1,36,0.00,CLR,,0.00,WeatherDisplay:10.37,2013-03-08 23:13:00,
2013-03-08 18:18:00,53.0,27.4,30.25,NNW,341,11.5,11.5,37,0.00,CLR,,0.00,WeatherDisplay:10.37,2013-03-08 23:18:00,
2013-03-08 18:23:00,53.5,27.2,30.24,North,351,3.5,4.9,36,0.00,CLR,,0.00,WeatherDisplay:10.37,2013-03-08 23:23:00,
2013-03-08 18:28:00,52.0,27.8,30.25,NNE,19,8.1,8.1,39,0.00,CLR,,0.00,WeatherDisplay:10.37,2013-03-08 23:28:00,
2013-03-08 18:33:00,51.5,27.9,30.25,NE,38,4.6,4.6,40,0.00,CLR,,0.00,WeatherDisplay:10.37,2013-03-08 23:33:00,
2013-03-08 18:38:00,53.5,27.2,30.24,North,351,3.5,4.9,36,0.00,CLR,,0.00,WeatherDisplay:10.37,2013-03-08 23:38:00,
2013-03-08 18:43:00,50.6,27.7,30.25,NE,46,4.0,4.0,41,0.00,CLR,,0.00,WeatherDisplay:10.37,2013-03-08 23:43:00,
2013-03-08 18:48:00,50.3,27.5,30.25,NNW,345,5.0,5.0,41,0.00,CLR,,0.00,WeatherDisplay:10.37,2013-03-08 23:48:00,
2013-03-08 18:53:00,50.2,28.0,30.26,North,5,3.5,4.5,42,0.00,CLR,,0.00,WeatherDisplay:10.37,2013-03-08 23:53:00,
2013-03-08 18:58:00,50.0,27.8,30.26,North,350,5.8,5.8,42,0.00,CLR,,0.00,WeatherDisplay:10.37,2013-03-08 23:58:00,
2013-03-08 19:03:00,49.7,27.5,30.26,North,350,3.5,3.5,42,0.00,CLR,,0.00,WeatherDisplay:10.37,2013-03-09 00:03:00,
2013-03-08 19:08:00,50.2,28.0,30.26,North,5,3.5,4.5,42,0.00,CLR,,0.00,WeatherDisplay:10.37,2013-03-09 00:08:00,
2013-03-08 19:13:00,50.2,28.0,30.26,North,5,3.5,4.5,42,0.00,CLR,,0.00,WeatherDisplay:10.37,2013-03-09 00:13:00,
2013-03-08 19:18:00,49.1,27.5,30.27,North,10,2.3,2.3,43,0.00,CLR,,0.00,WeatherDisplay:10.37,2013-03-09 00:18:00,
2013-03-08 19:23:00,50.2,28.0,30.26,North,5,3.5,4.5,42,0.00,CLR,,0.00,WeatherDisplay:10.37,2013-03-09 00:23:00,
2013-03-08 19:28:00,50.2,28.0,30.26,North,5,3.5,4.5,42,0.00,CLR,,0.00,WeatherDisplay:10.37,2013-03-09 00:28:00,
2013-03-08 19:33:00,48.6,27.6,30.27,North,10,0.0,0.0,44,0.00,CLR,,0.00,WeatherDisplay:10.37,2013-03-09 00:33:00,
2013-03-08 19:38:00,50.2,28.0,30.26,North,5,3.5,4.5,42,0.00,CLR,,0.00,WeatherDisplay:10.37,2013-03-09 00:38:00,
2013-03-08 19:43:00,48.1,27.7,30.27,North,10,0.0,0.0,45,0.00,CLR,,0.00,WeatherDisplay:10.37,2013-03-09 00:43:00,
2013-03-08 19:48:00,47.8,27.5,30.27,North,10,3.5,3.5,45,0.00,CLR,,0.00,WeatherDisplay:10.37,2013-03-09 00:48:00,
2013-03-08 19:53:00,47.5,27.2,30.27,North,10,0.0,0.0,45,0.00,CLR,,0.00,WeatherDisplay:10.37,2013-03-09 00:53:00,
2013-03-08 19:58:00,47.3,27.5,30.28,North,10,0.0,0.0,46,0.00,CLR,,0.00,WeatherDisplay:10.37,2013-03-09 00:58:00,
2013-03-08 20:03:00,47.5,27.2,30.27,North,10,0.0,0.0,45,0.00,CLR,,0.00,WeatherDisplay:10.37,2013-03-09 01:03:00,
2013-03-08 20:08:00,46.9,27.7,30.28,North,10,0.0,0.0,47,0.00,CLR,,0.00,WeatherDisplay:10.37,2013-03-09 01:08:00,
2013-03-08 20:13:00,47.5,27.2,30.27,North,10,0.0,0.0,45,0.00,CLR,,0.00,WeatherDisplay:10.37,2013-03-09 01:13:00,
2013-03-08 20:18:00,46.2,27.6,30.29,NE,38,1.2,1.2,48,0.00,CLR,,0.00,WeatherDisplay:10.37,2013-03-09 01:18:00,
2013-03-08 20:23:00,46.1,27.5,30.29,NE,38,0.0,0.0,48,0.00,CLR,,0.00,WeatherDisplay:10.37,2013-03-09 01:23:00,
2013-03-08 20:28:00,46.0,27.4,30.30,NE,38,0.0,0.0,48,0.00,CLR,,0.00,WeatherDisplay:10.37,2013-03-09 01:28:00,
2013-03-08 20:33:00,47.5,27.2,30.27,North,10,0.0,0.0,45,0.00,CLR,,0.00,WeatherDisplay:10.37,2013-03-09 01:33:00,
2013-03-08 20:38:00,45.7,27.6,30.30,NE,38,0.0,0.0,49,0.00,CLR,,0.00,WeatherDisplay:10.37,2013-03-09 01:38:00,
2013-03-08 20:43:00,45.6,27.5,30.30,NE,38,0.0,0.0,49,0.00,CLR,,0.00,WeatherDisplay:10.37,2013-03-09 01:43:00,
2013-03-08 20:48:00,45.5,27.4,30.30,NNW,348,1.2,1.2,49,0.00,CLR,,0.00,WeatherDisplay:10.37,2013-03-09 01:48:00,
2013-03-08 20:53:00,45.2,27.2,30.31,NNW,348,0.0,0.0,49,0.00,CLR,,0.00,WeatherDisplay:10.37,2013-03-09 01:53:00,
2013-03-08 20:58:00,45.1,27.6,30.30,WNW,283,0.0,0.0,50,0.00,CLR,,0.00,WeatherDisplay:10.37,2013-03-09 01:58:00,
2013-03-08 21:03:00,45.5,27.4,30.30,NNW,348,1.2,1.2,49,0.00,CLR,,0.00,WeatherDisplay:10.37,2013-03-09 02:03:00,
2013-03-08 21:08:00,44.6,27.1,30.31,WNW,283,0.0,0.0,50,0.00,CLR,,0.00,WeatherDisplay:10.37,2013-03-09 02:08:00,
2013-03-08 21:13:00,44.4,27.4,30.31,WNW,283,0.0,0.0,51,0.00,CLR,,0.00,WeatherDisplay:10.37,2013-03-09 02:13:00,
2013-03-08 21:18:00,44.5,27.5,30.31,WNW,283,0.0,0.0,51,0.00,CLR,,0.00,WeatherDisplay:10.37,2013-03-09 02:18:00,
2013-03-08 21:23:00,44.5,27.5,30.31,WNW,283,0.0,0.0,51,0.00,CLR,,0.00,WeatherDisplay:10.37,2013-03-09 02:23:00,
2013-03-08 21:28:00,44.5,27.5,30.31,WNW,283,0.0,0.0,51,0.00,CLR,,0.00,WeatherDisplay:10.37,2013-03-09 02:28:00,
2013-03-08 21:33:00,44.5,27.5,30.31,WNW,283,0.0,0.0,51,0.00,CLR,,0.00,WeatherDisplay:10.37,2013-03-09 02:33:00,
2013-03-08 21:38:00,43.3,26.8,30.31,WNW,303,3.5,3.5,52,0.00,CLR,,0.00,WeatherDisplay:10.37,2013-03-09 02:38:00,
2013-03-08 21:43:00,44.5,27.5,30.31,WNW,283,0.0,0.0,51,0.00,CLR,,0.00,WeatherDisplay:10.37,2013-03-09 02:43:00,
2013-03-08 21:48:00,42.5,27.0,30.32,North,9,0.0,0.0,54,0.00,CLR,,0.00,WeatherDisplay:10.37,2013-03-09 02:48:00,
2013-03-08 21:53:00,44.5,27.5,30.31,WNW,283,0.0,0.0,51,0.00,CLR,,0.00,WeatherDisplay:10.37,2013-03-09 02:53:00,
2013-03-08 21:58:00,44.5,27.5,30.31,WNW,283,0.0,0.0,51,0.00,CLR,,0.00,WeatherDisplay:10.37,2013-03-09 02:58:00,
2013-03-08 22:03:00,42.4,26.9,30.33,NNE,26,0.0,0.0,54,0.00,CLR,,0.00,WeatherDisplay:10.37,2013-03-09 03:03:00,
2013-03-08 22:08:00,42.3,26.8,30.33,NNE,26,0.0,0.0,54,0.00,CLR,,0.00,WeatherDisplay:10.37,2013-03-09 03:08:00,
2013-03-08 22:13:00,44.5,27.5,30.31,WNW,283,0.0,0.0,51,0.00,CLR,,0.00,WeatherDisplay:10.37,2013-03-09 03:13:00,
2013-03-08 22:18:00,42.3,26.8,30.32,NNE,26,0.0,0.0,54,0.00,CLR,,0.00,WeatherDisplay:10.37,2013-03-09 03:18:00,
2013-03-08 22:23:00,44.5,27.5,30.31,WNW,283,0.0,0.0,51,0.00,CLR,,0.00,WeatherDisplay:10.37,2013-03-09 03:23:00,
2013-03-08 22:28:00,42.0,27.0,30.32,East,95,2.3,2.3,55,0.00,CLR,,0.00,WeatherDisplay:10.37,2013-03-09 03:28:00,
2013-03-08 22:33:00,44.5,27.5,30.31,WNW,283,0.0,0.0,51,0.00,CLR,,0.00,WeatherDisplay:10.37,2013-03-09 03:33:00,
2013-03-08 22:38:00,41.3,26.8,30.33,East,92,3.5,3.5,56,0.00,CLR,,0.00,WeatherDisplay:10.37,2013-03-09 03:38:00,
2013-03-08 22:43:00,41.1,26.6,30.32,ENE,59,0.0,0.0,56,0.00,CLR,,0.00,WeatherDisplay:10.37,2013-03-09 03:43:00,
2013-03-08 22:48:00,44.5,27.5,30.31,WNW,283,0.0,0.0,51,0.00,CLR,,0.00,WeatherDisplay:10.37,2013-03-09 03:48:00,
2013-03-08 22:53:00,44.5,27.5,30.31,WNW,283,0.0,0.0,51,0.00,CLR,,0.00,WeatherDisplay:10.37,2013-03-09 03:53:00,
2013-03-08 22:58:00,44.5,27.5,30.31,WNW,283,0.0,0.0,51,0.00,CLR,,0.00,WeatherDisplay:10.37,2013-03-09 03:58:00,
2013-03-08 23:03:00,40.9,26.4,30.33,ENE,59,0.0,0.0,56,0.00,CLR,,0.00,WeatherDisplay:10.37,2013-03-09 04:03:00,
2013-03-08 23:08:00,40.8,26.7,30.33,ENE,59,0.0,0.0,57,0.00,CLR,,0.00,WeatherDisplay:10.37,2013-03-09 04:08:00,
2013-03-08 23:13:00,40.8,26.7,30.33,ENE,58,0.0,0.0,57,0.00,CLR,,0.00,WeatherDisplay:10.37,2013-03-09 04:13:00,
2013-03-08 23:18:00,40.9,26.8,30.33,NE,50,0.0,0.0,57,0.00,CLR,,0.00,WeatherDisplay:10.37,2013-03-09 04:18:00,
2013-03-08 23:23:00,40.8,26.7,30.33,East,79,3.5,3.5,57,0.00,CLR,,0.00,WeatherDisplay:10.37,2013-03-09 04:23:00,
2013-03-08 23:28:00,40.9,26.8,30.33,NE,50,1.2,1.3,57,0.00,CLR,,0.00,WeatherDisplay:10.37,2013-03-09 04:28:00,
2013-03-08 23:33:00,40.9,26.8,30.33,NE,50,1.2,1.3,57,0.00,CLR,,0.00,WeatherDisplay:10.37,2013-03-09 04:33:00,
2013-03-08 23:38:00,40.9,26.8,30.33,NE,50,1.2,1.3,57,0.00,CLR,,0.00,WeatherDisplay:10.37,2013-03-09 04:38:00,
2013-03-08 23:43:00,40.9,26.8,30.33,NE,50,1.2,1.3,57,0.00,CLR,,0.00,WeatherDisplay:10.37,2013-03-09 04:43:00,
2013-03-08 23:48:00,40.0,26.4,30.33,East,79,1.2,1.2,58,0.00,CLR,,0.00,WeatherDisplay:10.37,2013-03-09 04:48:00,
2013-03-08 23:53:00,39.8,26.6,30.33,East,79,0.0,0.0,59,0.00,CLR,,0.00,WeatherDisplay:10.37,2013-03-09 04:53:00,
2013-03-08 23:58:00,40.0,26.4,30.33,East,79,0.0,0.0,58,0.00,CLR,,0.00,WeatherDisplay:10.37,2013-03-09 04:58:00,